Previsão horária em Semyhyniv

Hoje, 30 Julho, Sexta-feira

Tempo Temperatura Precipitação Vento Pressão Humidade
00:00 +20°C° 0 mm 1 m/s 730 mmHg 91%
01:00 +19°C° 0 mm 1 m/s 731 mmHg 90%
02:00 +19°C° 0 mm 1 m/s 730 mmHg 89%
03:00 +19°C° 0 mm 1 m/s 730 mmHg 89%
04:00 +19°C° 0 mm 1 m/s 730 mmHg 88%
05:00 +19°C° 0 mm 1 m/s 730 mmHg 88%
06:00 +21°C° 0 mm 1 m/s 730 mmHg 82%
07:00 +22°C° 0 mm 1 m/s 730 mmHg 77%
08:00 +22°C° 0 mm 0 m/s 730 mmHg 72%
09:00 +25°C° 0 mm 1 m/s 730 mmHg 63%
10:00 +27°C° 0 mm 1 m/s 730 mmHg 54%
11:00 +28°C° 0 mm 1 m/s 730 mmHg 46%
12:00 +29°C° 0 mm 1 m/s 730 mmHg 44%
13:00 +30°C° 0 mm 2 m/s 730 mmHg 42%
14:00 +30°C° 0 mm 2 m/s 729 mmHg 41%
15:00 +30°C° 0 mm 2 m/s 729 mmHg 46%
16:00 +29°C° 0 mm 1 m/s 729 mmHg 52%
17:00 +28°C° 0 mm 1 m/s 729 mmHg 57%
18:00 +26°C° 0 mm 1 m/s 729 mmHg 63%
19:00 +25°C° 0 mm 2 m/s 729 mmHg 69%
20:00 +23°C° 0 mm 2 m/s 729 mmHg 75%
21:00 +23°C° 0 mm 2 m/s 729 mmHg 74%
22:00 +21°C° 0 mm 2 m/s 729 mmHg 73%
23:00 +21°C° 0 mm 2 m/s 729 mmHg 72%

Amanhã, 31 Julho, Sábado

Tempo Temperatura Precipitação Vento Pressão Humidade
00:00 +21°C° 0 mm 2 m/s 729 mmHg 72%
01:00 +20°C° 0 mm 2 m/s 729 mmHg 73%
02:00 +20°C° 0 mm 2 m/s 728 mmHg 74%
03:00 +19°C° 0 mm 2 m/s 728 mmHg 73%
04:00 +19°C° 0 mm 2 m/s 728 mmHg 72%
05:00 +19°C° 0 mm 2 m/s 728 mmHg 72%
06:00 +21°C° 0 mm 2 m/s 728 mmHg 68%
07:00 +24°C° 0 mm 1 m/s 728 mmHg 64%
08:00 +26°C° 0 mm 1 m/s 728 mmHg 60%
09:00 +28°C° 0 mm 1 m/s 728 mmHg 54%
10:00 +30°C° 0 mm 2 m/s 728 mmHg 48%
11:00 +31°C° 0 mm 2 m/s 728 mmHg 42%
12:00 +32°C° 0 mm 2 m/s 728 mmHg 40%
13:00 +33°C° 0 mm 3 m/s 728 mmHg 39%
14:00 +34°C° 0 mm 3 m/s 727 mmHg 37%
15:00 +33°C° 0 mm 3 m/s 727 mmHg 41%
16:00 +32°C° 0 mm 4 m/s 727 mmHg 45%
17:00 +30°C° 0 mm 4 m/s 727 mmHg 50%
18:00 +27°C° 0.1 mm 4 m/s 727 mmHg 63%
19:00 +24°C° 0.1 mm 3 m/s 727 mmHg 77%
20:00 +20°C° 0.1 mm 3 m/s 728 mmHg 90%
21:00 +19°C° 0.1 mm 3 m/s 728 mmHg 92%
22:00 +19°C° 0.1 mm 2 m/s 728 mmHg 94%
23:00 +18°C° 0.1 mm 2 m/s 729 mmHg 95%

Depois de amanhã, 1 Agosto, Domingo

Tempo Temperatura Precipitação Vento Pressão Humidade
00:00 +19°C° 0 mm 1 m/s 729 mmHg 95%
01:00 +18°C° 0 mm 1 m/s 729 mmHg 94%
02:00 +18°C° 0 mm 1 m/s 729 mmHg 93%
03:00 +18°C° 0 mm 1 m/s 729 mmHg 93%
04:00 +16°C° 0 mm 1 m/s 729 mmHg 92%
05:00 +16°C° 0 mm 1 m/s 729 mmHg 91%
06:00 +19°C° 0 mm 1 m/s 729 mmHg 86%
07:00 +21°C° 0 mm 1 m/s 729 mmHg 81%
08:00 +23°C° 0 mm 1 m/s 729 mmHg 75%
09:00 +25°C° 0 mm 2 m/s 728 mmHg 68%
10:00 +27°C° 0 mm 2 m/s 728 mmHg 60%
11:00 +29°C° 0 mm 3 m/s 728 mmHg 52%
12:00 +29°C° 0 mm 3 m/s 728 mmHg 52%
13:00 +30°C° 0 mm 3 m/s 727 mmHg 51%
14:00 +31°C° 0 mm 3 m/s 727 mmHg 51%
15:00 +32°C° 0.1 mm 4 m/s 727 mmHg 52%
16:00 +32°C° 0.1 mm 4 m/s 726 mmHg 54%
17:00 +32°C° 0.1 mm 5 m/s 726 mmHg 56%
18:00 +28°C° 0.3 mm 5 m/s 726 mmHg 64%
19:00 +25°C° 0.3 mm 5 m/s 726 mmHg 71%
20:00 +21°C° 0.3 mm 5 m/s 726 mmHg 79%
21:00 +20°C° 0 mm 5 m/s 726 mmHg 84%
22:00 +20°C° 0 mm 4 m/s 726 mmHg 88%
23:00 +19°C° 0 mm 3 m/s 726 mmHg 93%

2 Agosto, Segunda-feira

Tempo Temperatura Precipitação Vento Pressão Humidade
00:00 +18°C° 0 mm 2 m/s 726 mmHg 94%
01:00 +18°C° 0 mm 2 m/s 726 mmHg 95%
02:00 +18°C° 0 mm 1 m/s 726 mmHg 96%
03:00 +18°C° 0 mm 1 m/s 726 mmHg 96%
04:00 +16°C° 0 mm 1 m/s 726 mmHg 96%
05:00 +16°C° 0 mm 1 m/s 726 mmHg 96%
06:00 +17°C° 0 mm 2 m/s 727 mmHg 95%
07:00 +17°C° 0 mm 2 m/s 727 mmHg 93%
08:00 +18°C° 0 mm 2 m/s 727 mmHg 92%
09:00 +17°C° 0.1 mm 3 m/s 728 mmHg 93%
10:00 +17°C° 0.1 mm 3 m/s 728 mmHg 93%
11:00 +16°C° 0.1 mm 3 m/s 729 mmHg 93%
12:00 +17°C° 0.1 mm 3 m/s 729 mmHg 90%
13:00 +17°C° 0.1 mm 2 m/s 729 mmHg 86%
14:00 +17°C° 0.1 mm 2 m/s 730 mmHg 83%
15:00 +19°C° 0 mm 2 m/s 730 mmHg 77%
16:00 +20°C° 0 mm 2 m/s 730 mmHg 72%
17:00 +21°C° 0 mm 2 m/s 729 mmHg 66%
18:00 +21°C° 0 mm 1 m/s 730 mmHg 71%
19:00 +19°C° 0 mm 1 m/s 730 mmHg 77%
20:00 +16°C° 0 mm 0 m/s 730 mmHg 82%
21:00 +18°C° 0 mm 1 m/s 730 mmHg 85%
22:00 +16°C° 0 mm 1 m/s 731 mmHg 87%
23:00 +15°C° 0 mm 1 m/s 731 mmHg 90%

3 Agosto, Terça-feira

Tempo Temperatura Precipitação Vento Pressão Humidade
00:00 +15°C° 0 mm 1 m/s 731 mmHg 90%
01:00 +15°C° 0 mm 1 m/s 731 mmHg 91%
02:00 +14°C° 0 mm 1 m/s 732 mmHg 91%
03:00 +14°C° 0 mm 1 m/s 732 mmHg 91%
04:00 +14°C° 0 mm 1 m/s 732 mmHg 91%
05:00 +14°C° 0 mm 1 m/s 732 mmHg 91%
06:00 +15°C° 0 mm 1 m/s 732 mmHg 85%
07:00 +18°C° 0 mm 1 m/s 733 mmHg 78%
08:00 +20°C° 0 mm 1 m/s 733 mmHg 72%
09:00 +21°C° 0 mm 1 m/s 733 mmHg 68%
10:00 +22°C° 0 mm 1 m/s 733 mmHg 63%
11:00 +24°C° 0 mm 2 m/s 733 mmHg 59%
12:00 +24°C° 0.2 mm 2 m/s 733 mmHg 58%
13:00 +24°C° 0.2 mm 2 m/s 733 mmHg 58%
14:00 +25°C° 0.2 mm 2 m/s 733 mmHg 57%
15:00 +25°C° 0.5 mm 1 m/s 732 mmHg 59%
16:00 +24°C° 0.5 mm 1 m/s 732 mmHg 61%
17:00 +24°C° 0.5 mm 1 m/s 732 mmHg 63%
18:00 +23°C° 0.3 mm 1 m/s 732 mmHg 69%
19:00 +21°C° 0.3 mm 1 m/s 732 mmHg 75%
20:00 +19°C° 0.3 mm 1 m/s 732 mmHg 81%
21:00 +19°C° 0 mm 1 m/s 732 mmHg 83%
22:00 +17°C° 0 mm 2 m/s 732 mmHg 85%
23:00 +16°C° 0 mm 2 m/s 732 mmHg 88%

4 Agosto, Quarta-feira

Tempo Temperatura Precipitação Vento Pressão Humidade
00:00 +16°C° 0 mm 2 m/s 731 mmHg 89%
01:00 +15°C° 0 mm 2 m/s 731 mmHg 90%
02:00 +15°C° 0 mm 2 m/s 731 mmHg 91%
03:00 +15°C° 0.4 mm 2 m/s 731 mmHg 92%
04:00 +15°C° 0.4 mm 2 m/s 731 mmHg 93%
05:00 +15°C° 0.4 mm 2 m/s 731 mmHg 94%
06:00 +15°C° 0.9 mm 2 m/s 731 mmHg 94%
07:00 +16°C° 0.9 mm 1 m/s 731 mmHg 94%
08:00 +15°C° 0.9 mm 0 m/s 731 mmHg 94%
09:00 +19°C° 0.3 mm 1 m/s 731 mmHg 85%
10:00 +21°C° 0.3 mm 1 m/s 731 mmHg 76%
11:00 +23°C° 0.3 mm 2 m/s 731 mmHg 68%
12:00 +24°C° 0.3 mm 2 m/s 731 mmHg 63%
13:00 +25°C° 0.3 mm 2 m/s 731 mmHg 58%
14:00 +26°C° 0.3 mm 2 m/s 731 mmHg 53%
15:00 +25°C° 0.1 mm 2 m/s 731 mmHg 55%
16:00 +25°C° 0.1 mm 2 m/s 731 mmHg 57%
17:00 +25°C° 0.1 mm 2 m/s 731 mmHg 58%
18:00 +23°C° 0 mm 1 m/s 731 mmHg 65%
19:00 +22°C° 0 mm 1 m/s 731 mmHg 72%
20:00 +18°C° 0 mm 0 m/s 731 mmHg 79%
21:00 +20°C° 0 mm 1 m/s 731 mmHg 80%
22:00 +19°C° 0 mm 1 m/s 731 mmHg 81%
23:00 +19°C° 0 mm 1 m/s 731 mmHg 81%
Mostrar mais

Necessitamos do seu Consentimento

A Meteoprog e os seus Fornecedores de Serviços podem armazenar e aceder a dados pessoais como cookies, identificadores do dispositivo ou outras tecnologias semelhantes existentes no seu dispositivo e processar estes dados para personalizar conteúdos e anúncios, assim como funcionalidades nas redes sociais e análise de tráfego.

  • Armazenar e/ou aceder a informações no seu dispositivo

    Os cookies, identificadores do dispositivo ou outras informações podem ser armazenados ou acedidos no seu dispositivo, para os fins acima indicados.

  • Anúncios e conteúdos personalizados, medição de anúncios e conteúdos, dados sobre o público-alvo e desenvolvimento de produtos

    Os anúncios e os conteúdos podem ser personalizados com base num perfil. Podem ser adicionados dados adicionais para uma maior personalização dos anúncios e dos conteúdos. A eficácia dos anúncios e dos conteúdos pode ser medida. Podem ser obtidas informações sobre o público que visualizou os anúncios e os conteúdos. Estes dados podem ser usados para desenvolver ou melhorar sistemas, softwares ou a experiência do utilizador.

Ao clicar em "Eu concordo”, permitirá o uso de cookies, identificadores do dispositivo e web beacons mencionados ou outras tecnologias semelhantes. As configurações do navegador do seu dispositivo podem ser alteradas.

Para certos fins, podem ser invocados interesses legítimos ao invés de consentimento. Pode ler mais informação sobre este assunto na nossa Política de Privacidade e Cookies.